{"data":{"norad_id":32790,"epoch":"2026-09-19T09:02:11.561280Z","epoch_age_seconds":111436,"freshness":"FRESH","line1":"1 32790U 08021H   26262.37652270  .00002936  00000+0  20477-3 0  9994","line2":"2 32790  97.8747 244.0777 0011661  86.3399 273.9161 15.06167348998982","mean_motion":15.06167348,"eccentricity":0.0011661,"inclination_deg":97.8747,"raan_deg":244.0777,"arg_perigee_deg":86.3399,"mean_anomaly_deg":273.9161,"bstar":0.00020477,"rev_number":99898,"period_min":95.606905959828,"perigee_km":539.84821405107,"apogee_km":556.0011751352,"semimajor_km":6926.0616945931,"source":"CELESTRAK","updated_at":"2026-09-20T09:00:47.986832Z"}}